Location: Tamazert
(32.6352°N, 5.2072°W)
Time: 23:56:57
(UTC+00:00)

Altair - Pass Details

Date: 12 October 2022
Orbit: 1501 x 1682 km, 47.2° (Epoch: 05 December)

Event Time Altitude Azimuth Distance (km) Brightness Sun altitude
Exits shadow 02:58:09 53° 24° (NNE) 1,902 8.0 -43.1°
Drops below altitude 10° 03:05:32 10° 50° (NE) 3,862 10.2 -41.6°
Sets 03:08:46 0° 53° (NE) 4,872 10.9 -41.0°
